DW2465 Weather Reports


time (UTC)temp
F
wind
direction
speed
knots
gust
knots
rain 1hr
in
rain 24hr
in
rain mn
in
humidity
%
barometer
mb
20260508003018 57 276 0.0 0.0 0.00 0.00 0.00 29 1009.0
20260508001530 57 278 0.0 0.0 0.00 0.00 0.00 28 1009.0
20260508000015 57 263 0.0 0.0 0.00 0.00 0.00 29 1009.1
20260507234514 57 282 0.0 0.0 0.00 0.00 0.00 28 1009.1
20260507233012 57 259 0.0 0.0 0.00 0.00 0.00 27 1009.2
20260507231512 57 309 0.0 0.0 0.00 0.00 0.00 26 1009.5
20260507230008 57 295 0.0 0.0 0.00 0.00 0.00 26 1009.6
20260507224512 57 290 0.0 0.0 0.00 0.00 0.00 26 1009.7
20260507223007 57 311 0.0 0.0 0.00 0.00 0.00 28 1009.7
20260507221507 57 263 0.0 0.0 0.00 0.00 0.00 26 1009.6
20260507220034 57 360 0.0 0.0 0.00 0.00 0.00 28 1009.6
20260507214535 56 281 0.0 0.0 0.00 0.00 0.00 29 1009.8
20260507213059 56 275 0.0 0.0 0.00 0.00 0.00 27 1010.0
20260507211604 56 284 0.0 0.0 0.00 0.00 0.00 28 1010.0
20260507210108 56 282 0.0 0.0 0.00 0.00 0.00 26 1010.2
20260507204554 55 258 0.0 0.0 0.00 0.00 0.00 28 1010.5
20260507203115 55 257 0.0 0.0 0.00 0.00 0.00 26 1010.7
20260507201551 55 244 0.0 0.0 0.00 0.00 0.00 28 1010.8
20260507200017 54 316 0.0 0.0 0.00 0.00 0.00 27 1010.9
20260507194522 54 290 0.0 0.0 0.00 0.00 0.00 27 1011.0
20260507193014 53 203 0.0 0.0 0.00 0.00 0.00 28 1011.1
20260507191512 53 306 0.0 0.0 0.00 0.00 0.00 28 1011.1
20260507190013 53 319 0.0 0.0 0.00 0.00 0.00 29 1011.3
20260507184506 53 235 0.0 0.0 0.00 0.00 0.00 29 1011.5
20260507183002 51 303 0.0 0.0 0.00 0.00 0.00 31 1011.5
20260507181601 51 296 0.0 0.0 0.00 0.00 0.00 30 1011.8
20260507180059 51 186 0.0 0.0 0.00 0.00 0.00 31 1011.8
20260507174603 50 294 0.0 0.0 0.00 0.00 0.00 30 1012.0
20260507173049 50 315 0.0 0.0 0.00 0.00 0.00 29 1012.1
20260507171527 50 327 0.0 0.0 0.00 0.00 0.00 30 1012.3
20260507170022 50 316 0.0 0.0 0.00 0.00 0.00 32 1012.3
20260507164519 50 73 0.0 0.0 0.00 0.00 0.00 34 1012.7
20260507163016 49 360 0.0 0.0 0.00 0.00 0.00 35 1012.6
20260507161513 48 325 0.0 0.0 0.00 0.00 0.00 35 1012.8
20260507160010 47 302 0.0 0.0 0.00 0.00 0.00 38 1012.8
20260507154509 48 254 0.0 0.0 0.00 0.00 0.00 37 1012.9
20260507153007 47 26 0.0 0.0 0.00 0.00 0.00 40 1012.9
20260507151505 47 340 0.0 0.0 0.00 0.00 0.00 39 1013.0
20260507150001 47 174 0.0 0.0 0.00 0.00 0.00 43 1013.0
20260507144618 45 360 0.0 0.0 0.00 0.00 0.00 43 1013.1
20260507143102 45 249 0.0 0.0 0.00 0.00 0.00 43 1013.1
20260507141601 44 265 0.0 0.0 0.00 0.00 0.00 46 1013.1
20260507140049 44 314 0.0 0.0 0.00 0.00 0.00 47 1013.2
20260507134551 43 244 0.0 0.0 0.00 0.00 0.00 52 1013.3
20260507133111 42 244 0.0 0.0 0.00 0.00 0.00 55 1013.2
20260507131545 42 254 0.0 0.0 0.00 0.00 0.00 58 1013.4
20260507130045 41 256 0.0 0.0 0.00 0.00 0.00 60 1013.5
20260507124530 40 288 0.0 0.0 0.00 0.00 0.00 63 1013.4
20260507123035 39 288 0.0 0.0 0.00 0.00 0.00 65 1013.5
20260507121523 37 288 0.0 0.0 0.00 0.00 0.00 69 1013.5
20260507120021 36 288 0.0 0.0 0.00 0.00 0.00 72 1013.4
20260507114518 35 290 0.0 0.0 0.00 0.00 0.00 74 1013.4
20260507113017 34 290 0.0 0.0 0.00 0.00 0.00 73 1013.4
20260507111515 34 290 0.0 0.0 0.00 0.00 0.00 71 1013.5
20260507110016 34 291 0.0 0.0 0.00 0.00 0.00 71 1013.4
20260507104545 34 291 0.0 0.0 0.00 0.00 0.00 72 1013.4
20260507103049 34 291 0.0 0.0 0.00 0.00 0.00 73 1013.4
20260507101546 34 291 0.0 0.0 0.00 0.00 0.00 74 1013.5
20260507100040 34 291 0.0 0.0 0.00 0.00 0.00 73 1013.6
20260507094553 34 291 0.0 0.0 0.00 0.00 0.00 73 1013.6
20260507093040 35 291 0.0 0.0 0.00 0.00 0.00 71 1013.6
20260507091536 35 292 0.0 0.0 0.00 0.00 0.00 72 1013.8
20260507090036 35 292 0.0 0.0 0.00 0.00 0.00 72 1013.8
20260507084539 34 293 0.0 0.0 0.00 0.00 0.00 72 1013.7
20260507083033 34 296 0.0 0.0 0.00 0.00 0.00 73 1013.9
20260507081536 34 296 0.0 0.0 0.00 0.00 0.00 72 1013.5
20260507080027 34 296 0.0 0.0 0.00 0.00 0.00 71 1013.6
20260507074526 34 296 0.0 0.0 0.00 0.00 0.00 71 1013.8
20260507073024 34 296 0.0 0.0 0.00 0.00 0.00 72 1013.8
20260507071552 35 296 0.0 0.0 0.00 0.00 0.00 71 1014.0
20260507070057 35 296 0.0 0.0 0.00 0.00 0.00 69 1014.2
20260507064551 36 296 0.0 0.0 0.00 0.00 0.00 68 1014.2
20260507063043 36 296 0.0 0.0 0.00 0.00 0.00 68 1014.4
20260507061541 36 296 0.0 0.0 0.00 0.00 0.00 66 1014.5
20260507060039 36 296 0.0 0.0 0.00 0.00 0.00 68 1014.6
20260507054535 37 296 0.0 0.0 0.00 0.00 0.00 66 1014.6
20260507053034 37 296 0.0 0.0 0.00 0.00 0.00 64 1014.8
20260507051531 37 296 0.0 0.0 0.00 0.00 0.00 68 1014.8
20260507050031 38 296 0.0 0.0 0.00 0.00 0.00 65 1014.9
20260507044528 39 296 0.0 0.0 0.00 0.00 0.00 64 1014.9
20260507043027 39 296 0.0 0.0 0.00 0.00 0.00 64 1014.8
20260507041527 39 296 0.0 0.0 0.00 0.00 0.00 59 1015.0
20260507040026 39 296 0.0 0.0 0.00 0.00 0.00 60 1015.1
20260507034602 39 296 0.0 0.0 0.00 0.00 0.00 60 1015.3
20260507033107 39 296 0.0 0.0 0.00 0.00 0.00 59 1015.2
20260507031600 39 296 0.0 0.0 0.00 0.00 0.00 59 1015.2
20260507030107 40 296 0.0 0.0 0.00 0.00 0.00 57 1015.3
20260507024607 40 296 0.0 0.0 0.00 0.00 0.00 55 1015.3
20260507023051 40 296 0.0 0.0 0.00 0.00 0.00 54 1015.3
20260507021555 40 296 0.0 0.0 0.00 0.00 0.00 53 1015.4
20260507020057 40 296 0.0 0.0 0.00 0.00 0.00 53 1015.5
20260507014556 41 296 0.0 0.0 0.00 0.00 0.00 52 1015.4
20260507013053 41 296 0.0 0.0 0.00 0.00 0.00 51 1015.3
20260507011528 42 296 0.0 0.0 0.00 0.00 0.00 50 1015.4
20260507010020 43 296 0.0 0.0 0.00 0.00 0.00 49 1015.5
20260507004514 43 270 0.0 0.0 0.00 0.00 0.00 47 1015.5